Location: Knowlton
(51.2333°N, 1.2667°E)
Time: 10:06:07
(UTC+00:00)

Meteor 1-5 Rocket - Pass Details

Date: 18 April 2021
Orbit: 789 x 915 km, 81.2° (Epoch: 16 May)

Event Time Altitude Azimuth Distance (km) Brightness Sun altitude
Rises 23:38:44 0° 348° (NNW) 3,510 8.7 -27.5°
Reaches altitude 10° 23:41:16 10° 352° (N) 2,549 7.7 -27.5°
Maximum altitude 23:47:01 64° 74° (ENE) 953 4.4 -27.6°
Enters shadow 23:47:23 62° 95° (E) 963 4.3 -27.6°
